Tracking 19280 objects as of 14-Nov-2018
HD Live streaming from Space Station
objects crossing your sky now

OPS 4029

Track OPS 4029 now!
OPS 4029 is classified as:


NORAD ID: 12930
Int'l Code: 1981-107A
Perigee: 32,056.3 km
Apogee: 39,589.1 km
Inclination: 7.3 °
Period: 1,437.6 minutes
Semi major axis: 42193 km
RCS: Unknown
Launch date: October 31, 1981
Source: United States (US)
Launch site: AIR FORCE EASTERN TEST RANGE (AFETR)
aabbcc
Your satellite tracking list
Your tracking list is empty




NASA's NSSDC Master Catalog

Two Line Element Set (TLE):
1 12930U 81107A   18264.26657810 0.00000000  00000-0  00000-0 0    01
2 12930   7.2771 352.2628 0892634 339.4387  17.1903  1.00168574    01
Source of the keplerian elements: McCants